Location: Barg?y
(50.7064°N, 19.1259°E)
Time: 23:06:07
(UTC+00:00)

Daily predictions for brighter satellites

Satellite Brightness Start Highest point End
(mag) Time Altitude Azimuth Time Altitude Azimuth Time Altitude Azimuth
Cosmos 1607 4.0 16:22:16 10° SW 16:28:24 82° SE 16:34:38 10° NE
Cosmos 2151 Rocket 3.6 16:26:00 10° N 16:30:31 83° ENE 16:35:01 10° SSE
USA 234 3.6 16:24:32 10° SE 16:31:05 71° SW 16:37:40 10° WNW
Cosmos 2263 Rocket 4.0 16:30:56 10° ESE 16:31:51 10° E 16:32:45 10° E
Cosmos 1980 3.7 16:26:32 10° NNW 16:32:12 65° ENE 16:37:48 10° SE
CZ-2D R/B 3.9 16:29:23 10° SE 16:33:03 38° ENE 16:36:48 10° N
Cosmos 1455 Rocket 3.7 16:30:10 10° N 16:34:03 32° ENE 16:37:56 10° SE
YAOGAN 1 2.7 16:32:08 10° SE 16:36:14 49° ENE 16:40:21 10° N
Cosmos 2237 Rocket 2.2 16:31:43 10° NNW 16:37:23 66° ENE 16:43:03 10° SE
COSMOS 2428 3.4 16:32:00 10° NW 16:37:40 62° WSW 16:43:17 10° SSE
Cosmos 1975 Rocket 4.5 16:35:16 10° SE 16:38:03 17° E 16:40:50 10° NE
DNEPR-1 R/B 4.3 16:34:16 10° NNW 16:38:47 45° NE 16:44:05 10° ESE
NOSS 3-3 (A) 3.7 16:38:02 10° SW 16:43:14 78° SE 16:49:34 10° NE
SAR-Lupe-1 4.0 16:40:04 10° SSE 16:43:37 72° ENE 16:47:11 10° N
Spot 4 Rocket 4.2 16:39:42 10° SE 16:44:38 52° ENE 16:49:36 10° N
SJ-6F 4.5 16:41:08 10° SSE 16:45:04 80° WSW 16:49:01 10° NNW
NOAA 6 4.4 16:40:50 10° SE 16:45:42 44° ENE 16:50:36 10° N
USA 290 3.7 16:43:53 10° SW 16:46:53 38° WNW 16:49:54 10° N
ARIANE 5 R/B 3.3 16:44:13 10° S 16:49:14 58° WSW 16:54:14 10° NNW
SJ-7 4.4 16:45:45 10° SE 16:49:15 44° ENE 16:52:46 10° N
UNK 4.4 16:45:28 10° N 16:49:57 58° WNW 16:54:26 10° SSW
Okean 1 Rocket 3.0 16:46:06 10° N 16:50:32 87° E 16:54:52 10° S
Cosmos 2061 Rocket 4.1 16:44:45 10° N 16:51:11 89° W 16:57:29 10° S
CZ-4C R/B 2.0 16:52:35 10° SW 16:56:57 74° NW 17:02:37 10° NE
Cosmos 1464 Rocket 4.4 16:51:09 10° N 16:57:08 41° ENE 17:03:02 10° SE
Cosmos 1378 Rocket 4.4 16:53:09 10° SSW 16:57:21 52° WNW 17:01:33 10° N
Okean 2 Rocket 3.4 16:54:07 10° NNW 16:58:30 69° W 17:02:50 10° S
SL-16 R/B 4.0 16:53:07 10° N 16:58:46 38° WNW 17:04:25 10° SW
Cosmos 44 Rocket 4.0 16:54:58 10° S 16:59:28 36° ESE 17:03:58 11° NE
SAR-Lupe-4 3.9 16:56:14 10° S 16:59:48 71° WSW 17:03:23 10° NNW
NOSS 3-4 (A) 3.8 16:55:07 10° NW 17:01:43 82° NE 17:09:34 10° SE
NOSS 3-4 (C) 3.8 16:55:23 10° NW 17:02:01 81° NE 17:09:51 10° SE
Cosmos 2221 Rocket 3.6 16:58:31 10° S 17:02:59 81° E 17:07:32 10° NNE
Cosmos 2227 Rocket 3.0 16:58:56 10° SSE 17:03:47 30° ESE 17:08:39 10° NE
SL-16 R/B 2.8 16:58:32 10° NNW 17:03:47 37° NE 17:08:54 11° ESE
Cosmos 1346 Rocket 4.0 17:02:05 10° SE 17:04:36 18° E 17:05:39 16° ENE
Cosmos 1025 Rocket 3.2 17:00:21 10° SSW 17:04:40 77° WNW 17:09:02 10° N
Aureole 3 Rocket 2.4 17:02:42 10° N 17:06:39 87° ENE 17:09:49 10° S
Cosmos 1602 3.9 17:08:45 10° SSE 17:11:06 25° E 17:11:45 23° ENE
Cosmos 2150 Rocket 3.9 17:07:53 10° NNW 17:13:01 62° ENE 17:18:06 10° SE
Sich 1 Rocket 4.3 17:10:42 10° NNW 17:15:12 59° W 17:19:39 10° S
Orbus 7S? 4.4 17:07:04 10° WNW 17:16:54 88° NNE 17:20:27 15° ESE
Cosmos 2298 Rocket 4.0 17:11:44 10° NNW 17:17:01 64° ENE 17:22:16 10° SE
SKYMED 2 3.8 17:13:50 10° N 17:18:11 72° WNW 17:22:30 10° SSW
ATLAS 2AS CENTAUR R/B 4.0 17:12:43 10° WNW 17:18:36 29° N 17:24:21 10° NE
Resurs 1-3 4.1 17:15:56 10° S 17:20:10 60° WSW 17:24:28 10° NNW
Lacrosse 5 rocket 2.3 17:22:45 10° WNW 17:25:57 31° N 17:27:50 19° NE
CZ-4 R/B 2.7 17:27:51 19° NE 17:27:51 19° NE 17:29:55 10° NNE
Resurs 01 Rocket 1.5 17:23:14 10° SSE 17:27:37 75° ENE 17:32:03 10° N
CZ-4B R/B 4.3 17:30:09 21° ENE 17:31:01 22° ENE 17:35:02 10° N
Cosmos 1782 2.6 17:28:40 10° N 17:32:10 49° ENE 17:35:21 12° SSE
USA 267 3.4 17:30:28 16° ENE 17:35:53 72° NNW 17:42:24 10° WSW
CARTOSAT-1 3.9 17:34:03 10° S 17:38:13 67° WSW 17:42:25 10° NNW
CSL-04 Rocket 3.9 17:35:40 16° SE 17:39:29 42° ENE 17:44:26 10° N
ERS-1 Rocket 4.1 17:40:10 23° ENE 17:40:10 23° ENE 17:43:56 10° N
ARIANE 6 FM1 Upper Stage 2.6 17:40:28 10° NW 17:44:22 58° NE 17:45:29 41° E
Cosmos 2297 Rocket 2.5 17:42:25 10° SW 17:48:02 67° WNW 17:53:43 10° NNE
RESURS DK-1 3.7 17:46:49 10° N 17:49:28 22° NNE 17:49:28 22° NNE
Cosmos 1943 3.9 17:45:22 10° NNW 17:50:35 34° NE 17:51:54 31° ENE
Tsikada Rocket 4.4 17:45:22 10° SSE 17:50:53 36° E 17:56:28 10° NNE
SPOT 5 3.0 17:52:21 27° SE 17:54:51 52° ENE 17:59:51 10° N
Cosmos 2058 4.0 17:52:29 10° SSE 17:54:19 25° SSE 17:54:19 25° SSE
SJ-6B 2.6 17:54:40 10° S 17:58:05 71° WSW 18:01:33 10° NNW
IRAS Rocket 4.3 17:52:47 10° SSE 17:58:24 80° WSW 18:04:05 10° NNW
Okean O Rocket 3.9 18:01:49 12° NNE 18:01:49 12° NNE 18:02:17 10° NNE
Tiangong 0.2 17:58:35 10° SW 18:00:16 16° S 18:00:16 16° S
COSMO-SKYMED 1 3.7 18:00:05 10° N 18:03:59 41° WNW 18:07:51 10° SW
Cosmos 2228 3.5 18:00:02 10° NNW 18:04:08 57° W 18:08:16 10° S
Cosmos 2219 4.0 17:59:35 10° S 18:03:33 32° SE 18:03:33 32° SE
Meteor 1-31 Rocket 3.0 18:06:28 45° N 18:06:28 45° N 18:09:02 10° N
Cosmos 1544 Rocket 3.4 18:02:38 10° N 18:07:00 78° E 18:08:59 32° SSE
Cosmos 1816 Rocket 4.4 18:04:25 10° S 18:10:35 86° E 18:16:52 10° N
Cosmos 2344 3.5 18:03:18 10° SSW 18:10:54 56° SE 18:14:29 30° ENE
ADEOS 3.9 18:13:06 43° ENE 18:13:06 43° ENE 18:17:55 10° N
CZ-4B R/B 3.6 18:12:54 65° SSE 18:13:27 87° ENE 18:17:20 10° NNW
Cosmos 2263 Rocket 2.1 18:08:59 10° SSW 18:14:33 61° ESE 18:16:41 37° NE
Cosmos 1975 Rocket 3.6 18:11:02 10° SSW 18:15:19 58° WNW 18:19:36 10° N
Cosmos 2034 Rocket 3.9 18:09:36 10° N 18:15:48 89° W 18:22:02 10° S
Cosmos 2237 Rocket 4.4 18:16:27 10° NW 18:20:58 25° WSW 18:25:29 10° SSW
Cosmos 1634 Rocket 3.9 18:16:00 10° N 18:22:17 62° ENE 18:24:27 41° SE
Cosmos 783 Rocket 4.3 18:19:42 10° SSW 18:24:58 83° ESE 18:27:39 30° NNE
Feng Yun 1-1 Rocket 4.3 18:23:44 45° SE 18:25:29 68° ENE 18:31:23 10° NNW
PAYLOAD B 4.1 18:26:20 55° ESE 18:27:23 67° ENE 18:32:58 10° N
Terra 3.0 18:31:23 30° NNE 18:31:23 30° NNE 18:34:02 10° N
Cosmos 972 Rocket 3.8 18:26:21 10° NNW 18:31:21 75° ENE 18:31:38 73° E
Cosmos 1346 Rocket 3.9 18:36:05 10° SW 18:39:29 38° WNW 18:40:09 35° NW
Cosmos 44 Rocket 4.2 18:35:57 10° WSW 18:40:46 49° NW 18:42:35 34° N
Cosmos 2279 Rocket 3.9 18:37:09 10° N 18:43:02 61° ENE 18:43:02 61° ENE
CZ-4C R/B 3.7 18:41:51 10° WNW 18:46:10 28° NNW 18:48:41 21° NNE
Cosmos 2227 Rocket 2.8 18:41:59 10° SW 18:47:32 55° NW 18:51:30 19° NNE
SL-16 R/B 3.0 18:42:37 10° NW 18:48:03 48° WSW 18:50:50 27° S
MetOp-B 4.3 18:57:17 65° N 18:57:17 65° N 19:01:51 10° NNW
CZ-4 R/B 3.4 19:02:50 23° NW 19:02:50 23° NW 19:04:29 10° NNW
Lacrosse 5 rocket 3.6 19:00:06 10° NW 19:01:16 18° NW 19:01:16 18° NW
BREEZE-M DEB (TANK) 4.4 19:03:59 10° SW 19:09:06 66° SSE 19:31:53 10° ENE
CZ-4B R/B 3.5 19:12:00 59° NW 19:12:00 59° NW 19:16:25 10° NNW
ATLAS 2AS CENTAUR R/B 3.7 19:05:28 10° NW 19:11:28 32° NNE 19:11:46 31° NNE
Gbstr 26 Del rocket 4.3 19:08:23 10° WSW 19:15:03 72° S 19:15:03 72° S
ERS-1 Rocket 4.0 19:20:01 41° NW 19:20:01 41° NW 19:23:22 10° NNW
USA 267 3.7 19:17:49 50° NNE 19:18:32 52° N 19:24:49 10° WNW
Cosmos 1943 4.1 19:29:18 10° NW 19:33:42 46° WNW 19:33:42 46° WNW
Okean O Rocket 4.4 19:39:04 13° NNW 19:39:04 13° NNW 19:39:33 10° NNW
Cosmos 2263 Rocket 3.8 19:53:47 10° WSW 19:58:28 32° NW 19:58:28 32° NW
Terra 4.5 20:10:00 16° NW 20:10:00 16° NW 20:11:14 10° NW
Cosmos 2344 4.3 20:18:21 10° WSW 20:24:33 45° NW 20:24:33 45° NW
CZ-4C R/B 4.5 20:31:23 10° NW 20:33:37 20° NNW 20:33:37 20° NNW
